Time,TemperatureF,DewpointF,PressureIn,WindDirection,WindDirectionDegrees,WindSpeedMPH,WindSpeedGustMPH,Humidity,HourlyPrecipIn,Conditions,Clouds,dailyrainin,SolarRadiationWatts/m^2,SoftwareType,DateUTC
2013-06-23 00:00:00,56.5,56.5,29.75,South,191,10.0,-999.0,100,0.00,,,0.00,0.31,,2013-06-23 07:00:00,
2013-06-23 00:10:00,56.5,56.5,29.74,SW,222,10.2,-999.0,100,0.00,,,0.00,0.00,,2013-06-23 07:10:00,
2013-06-23 00:15:00,56.3,56.3,29.75,SW,226,10.5,-999.0,100,0.00,,,0.00,0.67,,2013-06-23 07:15:00,
2013-06-23 00:20:00,56.4,56.4,29.75,SW,231,7.6,-999.0,100,0.00,,,0.00,0.92,,2013-06-23 07:20:00,
2013-06-23 00:25:00,56.3,56.3,29.74,SW,224,7.8,-999.0,100,0.00,,,0.00,0.00,,2013-06-23 07:25:00,
2013-06-23 00:30:00,56.2,56.2,29.74,SW,232,6.3,-999.0,100,0.00,,,0.00,0.00,,2013-06-23 07:30:00,
2013-06-23 00:35:00,56.1,56.1,29.75,SSW,212,10.7,-999.0,100,0.00,,,0.00,0.98,,2013-06-23 07:35:00,
2013-06-23 00:40:00,56.4,56.4,29.74,NW,321,7.3,-999.0,100,0.00,,,0.00,0.73,,2013-06-23 07:40:00,
2013-06-23 00:45:00,56.1,56.1,29.74,WSW,238,13.4,-999.0,100,0.00,,,0.00,0.00,,2013-06-23 07:45:00,
2013-06-23 00:50:00,56.1,56.1,29.75,South,184,11.6,-999.0,100,0.00,,,0.00,0.00,,2013-06-23 07:50:00,
2013-06-23 00:55:00,55.9,55.9,29.75,South,191,11.6,-999.0,100,0.00,,,0.00,0.73,,2013-06-23 07:55:00,
2013-06-23 01:05:00,55.8,55.8,29.75,SW,220,13.3,-999.0,100,0.00,,,0.00,0.00,,2013-06-23 08:05:00,
2013-06-23 01:10:00,56.0,56.0,29.75,SSW,205,8.8,-999.0,100,0.00,,,0.00,0.98,,2013-06-23 08:10:00,
2013-06-23 01:15:00,55.8,55.8,29.74,SW,231,12.1,-999.0,100,0.00,,,0.00,0.79,,2013-06-23 08:15:00,
2013-06-23 01:20:00,56.0,56.0,29.74,SW,227,6.1,-999.0,100,0.00,,,0.00,0.00,,2013-06-23 08:20:00,
2013-06-23 01:25:00,56.0,56.0,29.74,West,266,8.3,-999.0,100,0.00,,,0.00,0.00,,2013-06-23 08:25:00,
2013-06-23 01:30:00,55.9,55.9,29.74,SW,217,6.1,-999.0,100,0.00,,,0.00,0.31,,2013-06-23 08:30:00,
2013-06-23 01:35:00,55.9,55.9,29.74,SW,224,10.9,-999.0,100,0.00,,,0.00,0.06,,2013-06-23 08:35:00,
2013-06-23 01:40:00,56.0,56.0,29.74,WSW,241,9.8,-999.0,100,0.00,,,0.00,0.49,,2013-06-23 08:40:00,
2013-06-23 01:45:00,56.2,56.2,29.75,WSW,247,9.0,-999.0,100,0.00,,,0.00,0.00,,2013-06-23 08:45:00,
2013-06-23 01:50:00,56.3,56.3,29.74,SW,229,11.7,-999.0,100,0.00,,,0.00,0.98,,2013-06-23 08:50:00,
2013-06-23 01:55:00,56.2,56.2,29.75,WSW,258,4.9,-999.0,100,0.00,,,0.00,0.00,,2013-06-23 08:55:00,
2013-06-23 02:00:00,56.1,56.1,29.75,SW,221,10.4,-999.0,100,0.00,,,0.00,1.22,,2013-06-23 09:00:00,
2013-06-23 02:05:00,56.2,56.2,29.75,SSW,201,4.7,-999.0,100,0.00,,,0.00,1.22,,2013-06-23 09:05:00,
2013-06-23 02:10:00,56.2,56.2,29.74,WSW,241,5.6,-999.0,100,0.00,,,0.00,0.00,,2013-06-23 09:10:00,
2013-06-23 02:15:00,56.2,56.2,29.75,SSW,206,9.2,-999.0,100,0.00,,,0.00,0.00,,2013-06-23 09:15:00,
2013-06-23 02:20:00,56.2,56.2,29.74,SSW,212,13.8,-999.0,100,0.00,,,0.00,0.00,,2013-06-23 09:20:00,
2013-06-23 02:25:00,56.2,56.2,29.74,SSE,165,8.3,-999.0,100,0.00,,,0.00,0.00,,2013-06-23 09:25:00,
2013-06-23 02:30:00,56.3,56.3,29.74,SSW,200,7.3,-999.0,100,0.00,,,0.00,0.85,,2013-06-23 09:30:00,
2013-06-23 02:35:00,56.3,56.3,29.75,SW,234,7.6,-999.0,100,0.00,,,0.00,0.18,,2013-06-23 09:35:00,
2013-06-23 02:40:00,56.4,56.4,29.75,SW,222,7.4,-999.0,100,0.00,,,0.00,0.00,,2013-06-23 09:40:00,
2013-06-23 02:45:00,56.4,56.4,29.75,WSW,242,6.8,-999.0,100,0.00,,,0.00,0.49,,2013-06-23 09:45:00,
2013-06-23 02:50:00,56.6,56.6,29.74,SW,225,2.3,-999.0,100,0.00,,,0.00,0.00,,2013-06-23 09:50:00,
2013-06-23 02:55:00,56.5,56.5,29.75,WSW,242,4.9,-999.0,100,0.00,,,0.00,0.00,,2013-06-23 09:55:00,
2013-06-23 03:00:00,56.8,56.8,29.74,South,187,1.1,-999.0,100,0.00,,,0.00,0.00,,2013-06-23 10:00:00,
2013-06-23 03:05:00,56.8,56.8,29.74,SSW,202,6.6,-999.0,100,0.00,,,0.00,0.00,,2013-06-23 10:05:00,
2013-06-23 03:10:00,56.8,56.8,29.74,WNW,288,6.3,-999.0,100,0.00,,,0.00,0.00,,2013-06-23 10:10:00,
2013-06-23 03:15:00,56.8,56.8,29.75,SSW,211,4.4,-999.0,100,0.00,,,0.00,0.00,,2013-06-23 10:15:00,
2013-06-23 03:20:00,57.0,57.0,29.75,West,278,2.3,-999.0,100,0.00,,,0.00,0.18,,2013-06-23 10:20:00,
2013-06-23 03:25:00,57.0,57.0,29.74,West,271,3.2,-999.0,100,0.00,,,0.00,0.18,,2013-06-23 10:25:00,
2013-06-23 03:30:00,57.1,57.1,29.74,WNW,292,5.1,-999.0,100,0.00,,,0.00,0.06,,2013-06-23 10:30:00,
2013-06-23 03:35:00,57.0,57.0,29.73,WNW,285,1.6,-999.0,100,0.00,,,0.00,0.18,,2013-06-23 10:35:00,
2013-06-23 03:40:00,57.1,57.1,29.74,SW,223,3.5,-999.0,100,0.00,,,0.00,0.73,,2013-06-23 10:40:00,
2013-06-23 03:45:00,57.0,57.0,29.73,West,268,10.5,-999.0,100,0.00,,,0.00,0.00,,2013-06-23 10:45:00,
2013-06-23 03:50:00,57.5,57.5,29.74,SSW,197,6.6,-999.0,100,0.00,,,0.00,0.00,,2013-06-23 10:50:00,
2013-06-23 03:55:00,58.4,58.4,29.74,WSW,243,5.1,-999.0,100,0.00,,,0.00,0.18,,2013-06-23 10:55:00,
2013-06-23 04:00:00,58.7,58.7,29.74,SW,219,2.7,-999.0,100,0.00,,,0.00,0.00,,2013-06-23 11:00:00,
2013-06-23 04:05:00,58.9,58.9,29.73,WSW,241,2.2,-999.0,100,0.00,,,0.00,0.24,,2013-06-23 11:05:00,
2013-06-23 04:10:00,59.3,59.3,29.73,SW,228,6.9,-999.0,100,0.00,,,0.00,0.98,,2013-06-23 11:10:00,
2013-06-23 04:15:00,59.6,59.6,29.73,SSW,205,5.8,-999.0,100,0.00,,,0.00,0.18,,2013-06-23 11:15:00,
2013-06-23 04:20:00,59.8,59.8,29.74,SW,231,2.0,-999.0,100,0.00,,,0.00,0.00,,2013-06-23 11:20:00,
2013-06-23 04:25:00,59.6,59.6,29.73,SW,214,5.2,-999.0,100,0.00,,,0.00,0.24,,2013-06-23 11:25:00,
2013-06-23 04:35:00,59.7,59.7,29.73,WSW,255,5.1,-999.0,100,0.00,,,0.00,0.55,,2013-06-23 11:35:00,
2013-06-23 04:40:00,60.3,60.3,29.74,SSW,209,2.5,-999.0,100,0.00,,,0.00,0.00,,2013-06-23 11:40:00,
2013-06-23 04:45:00,60.1,60.1,29.74,SSW,208,2.5,-999.0,100,0.00,,,0.00,0.49,,2013-06-23 11:45:00,
2013-06-23 04:50:00,60.2,60.2,29.74,West,261,5.9,-999.0,100,0.00,,,0.00,0.00,,2013-06-23 11:50:00,
2013-06-23 04:55:00,60.3,60.3,29.74,SSE,147,5.1,-999.0,100,0.00,,,0.00,0.43,,2013-06-23 11:55:00,
2013-06-23 05:05:00,60.5,60.5,29.74,WSW,237,5.8,-999.0,100,0.00,,,0.00,0.43,,2013-06-23 12:05:00,
2013-06-23 05:10:00,60.6,60.6,29.73,WSW,247,3.5,-999.0,100,0.00,,,0.00,0.00,,2013-06-23 12:10:00,
2013-06-23 05:15:00,60.7,60.7,29.73,South,191,5.4,-999.0,100,0.00,,,0.00,0.00,,2013-06-23 12:15:00,
2013-06-23 05:20:00,60.9,60.9,29.73,South,185,0.0,-999.0,100,0.00,,,0.00,0.98,,2013-06-23 12:20:00,
2013-06-23 05:25:00,61.1,61.1,29.74,West,278,4.4,-999.0,100,0.00,,,0.00,0.24,,2013-06-23 12:25:00,
2013-06-23 05:30:00,61.2,61.2,29.73,SSE,167,0.0,-999.0,100,0.00,,,0.00,0.73,,2013-06-23 12:30:00,
2013-06-23 05:35:00,61.2,61.2,29.73,NE,36,0.0,-999.0,100,0.00,,,0.00,0.00,,2013-06-23 12:35:00,
2013-06-23 05:40:00,61.2,61.2,29.73,SSW,193,1.0,-999.0,100,0.00,,,0.00,1.77,,2013-06-23 12:40:00,
2013-06-23 05:45:00,61.5,61.5,29.74,South,184,0.0,-999.0,100,0.00,,,0.00,2.32,,2013-06-23 12:45:00,
2013-06-23 05:50:00,61.5,61.5,29.73,WSW,251,5.6,-999.0,100,0.00,,,0.00,4.64,,2013-06-23 12:50:00,
2013-06-23 05:55:00,61.7,61.7,29.73,SSW,202,4.4,-999.0,100,0.00,,,0.00,4.82,,2013-06-23 12:55:00,
2013-06-23 06:00:00,61.7,61.7,29.73,SW,221,6.4,-999.0,100,0.00,,,0.00,7.14,,2013-06-23 13:00:00,
2013-06-23 06:10:00,61.9,61.9,29.73,SSW,213,4.4,-999.0,100,0.00,,,0.00,8.12,,2013-06-23 13:10:00,
2013-06-23 06:15:00,61.9,61.9,29.73,SSE,151,7.4,-999.0,100,0.00,,,0.00,9.10,,2013-06-23 13:15:00,
2013-06-23 06:20:00,62.0,62.0,29.74,South,188,7.6,-999.0,100,0.00,,,0.00,7.08,,2013-06-23 13:20:00,
2013-06-23 06:25:00,62.2,62.2,29.74,South,176,7.6,-999.0,100,0.00,,,0.00,7.88,,2013-06-23 13:25:00,
2013-06-23 06:30:00,62.2,62.2,29.74,SW,231,4.2,-999.0,100,0.00,,,0.00,6.65,,2013-06-23 13:30:00,
2013-06-23 06:35:00,62.0,62.0,29.74,SW,228,3.5,-999.0,100,0.00,,,0.00,11.78,,2013-06-23 13:35:00,
2013-06-23 06:40:00,62.2,62.2,29.74,SW,229,3.7,-999.0,100,0.00,,,0.00,14.65,,2013-06-23 13:40:00,
2013-06-23 06:45:00,62.3,62.3,29.73,WSW,257,3.4,-999.0,100,0.00,,,0.00,18.07,,2013-06-23 13:45:00,
2013-06-23 06:50:00,62.3,62.3,29.73,North,351,1.0,-999.0,100,0.00,,,0.00,18.56,,2013-06-23 13:50:00,
2013-06-23 06:55:00,62.3,62.3,29.74,SW,229,2.8,-999.0,100,0.00,,,0.00,22.10,,2013-06-23 13:55:00,
2013-06-23 07:00:00,62.2,62.2,29.74,SSW,210,4.2,-999.0,100,0.00,,,0.00,29.85,,2013-06-23 14:00:00,
2013-06-23 07:10:00,62.5,62.5,29.74,NW,314,2.8,-999.0,100,0.00,,,0.00,31.14,,2013-06-23 14:10:00,
2013-06-23 07:15:00,62.5,62.5,29.74,South,177,5.8,-999.0,100,0.00,,,0.00,35.78,,2013-06-23 14:15:00,
2013-06-23 07:20:00,62.7,62.7,29.74,SSW,212,7.8,-999.0,100,0.00,,,0.00,33.27,,2013-06-23 14:20:00,
2013-06-23 07:25:00,62.9,62.9,29.73,SSW,194,0.0,-999.0,100,0.00,,,0.00,59.34,,2013-06-23 14:25:00,
2013-06-23 07:30:00,63.0,63.0,29.74,West,259,3.9,-999.0,100,0.00,,,0.00,44.38,,2013-06-23 14:30:00,
2013-06-23 07:40:00,63.0,63.0,29.74,SW,223,4.5,-999.0,100,0.00,,,0.00,48.11,,2013-06-23 14:40:00,
2013-06-23 07:45:00,63.0,63.0,29.74,South,176,2.5,-999.0,100,0.00,,,0.00,64.10,,2013-06-23 14:45:00,
2013-06-23 07:50:00,63.0,63.0,29.74,South,188,11.2,-999.0,100,0.00,,,0.00,59.16,,2013-06-23 14:50:00,
2013-06-23 07:55:00,63.0,63.0,29.74,SW,224,10.4,-999.0,100,0.00,,,0.00,92.98,,2013-06-23 14:55:00,
2013-06-23 08:00:00,63.3,63.3,29.74,SSE,168,5.4,-999.0,100,0.00,,,0.00,83.52,,2013-06-23 15:00:00,
2013-06-23 08:10:00,63.3,63.3,29.74,SSW,207,8.0,-999.0,100,0.00,,,0.00,81.62,,2013-06-23 15:10:00,
2013-06-23 08:15:00,63.1,63.1,29.75,SW,226,12.1,-999.0,100,0.00,,,0.00,76.74,,2013-06-23 15:15:00,
2013-06-23 08:20:00,63.1,63.1,29.74,SW,227,4.7,-999.0,100,0.00,,,0.00,59.77,,2013-06-23 15:20:00,
2013-06-23 08:25:00,63.1,63.1,29.74,SSW,209,6.6,-999.0,100,0.00,,,0.00,50.31,,2013-06-23 15:25:00,
2013-06-23 08:30:00,63.4,63.4,29.75,SSE,160,0.0,-999.0,100,0.00,,,0.00,49.39,,2013-06-23 15:30:00,
2013-06-23 08:40:00,63.2,63.2,29.75,WSW,241,1.8,-999.0,100,0.00,,,0.00,39.99,,2013-06-23 15:40:00,
2013-06-23 08:45:00,63.3,63.3,29.75,West,276,3.0,-999.0,100,0.00,,,0.00,47.86,,2013-06-23 15:45:00,
2013-06-23 08:50:00,63.2,63.2,29.75,SW,229,6.4,-999.0,100,0.00,,,0.00,46.40,,2013-06-23 15:50:00,
2013-06-23 08:55:00,63.2,63.2,29.75,SW,214,4.4,-999.0,100,0.00,,,0.00,57.45,,2013-06-23 15:55:00,
2013-06-23 09:00:00,63.2,63.2,29.75,SW,230,5.4,-999.0,100,0.00,,,0.00,51.53,,2013-06-23 16:00:00,
2013-06-23 09:10:00,63.2,63.2,29.75,West,276,6.4,-999.0,100,0.00,,,0.00,83.33,,2013-06-23 16:10:00,
2013-06-23 09:15:00,63.5,63.5,29.75,South,189,1.5,-999.0,100,0.00,,,0.00,60.01,,2013-06-23 16:15:00,
2013-06-23 09:20:00,63.7,63.7,29.75,SW,231,0.0,-999.0,100,0.00,,,0.00,75.52,,2013-06-23 16:20:00,
2013-06-23 09:25:00,63.6,63.6,29.75,NNW,327,1.6,-999.0,100,0.00,,,0.00,84.19,,2013-06-23 16:25:00,
2013-06-23 09:30:00,63.4,63.4,29.76,SSE,159,6.6,-999.0,100,0.00,,,0.00,62.45,,2013-06-23 16:30:00,
2013-06-23 09:40:00,63.5,63.5,29.76,WSW,251,3.4,-999.0,100,0.00,,,0.00,61.23,,2013-06-23 16:40:00,
2013-06-23 09:45:00,63.5,63.5,29.75,West,260,0.0,-999.0,100,0.00,,,0.00,106.29,,2013-06-23 16:45:00,
2013-06-23 09:50:00,63.6,63.6,29.75,SSW,200,0.0,-999.0,100,0.00,,,0.00,125.58,,2013-06-23 16:50:00,
2013-06-23 09:55:00,63.6,63.6,29.75,South,174,3.2,-999.0,100,0.00,,,0.00,96.76,,2013-06-23 16:55:00,
2013-06-23 10:00:00,64.2,64.2,29.76,SSW,195,1.3,-999.0,100,0.00,,,0.00,114.96,,2013-06-23 17:00:00,
2013-06-23 10:05:00,64.0,64.0,29.76,WSW,256,3.5,-999.0,100,0.00,,,0.00,103.79,,2013-06-23 17:05:00,
2013-06-23 10:10:00,64.2,64.2,29.76,WSW,246,3.4,-999.0,100,0.00,,,0.00,94.08,,2013-06-23 17:10:00,
2013-06-23 10:15:00,64.6,64.6,29.75,WSW,237,0.0,-999.0,100,0.00,,,0.00,143.35,,2013-06-23 17:15:00,
2013-06-23 10:20:00,64.5,64.5,29.75,South,187,0.0,-999.0,100,0.00,,,0.00,94.02,,2013-06-23 17:20:00,
2013-06-23 10:25:00,64.5,64.5,29.75,WSW,256,1.0,-999.0,100,0.00,,,0.00,128.94,,2013-06-23 17:25:00,
2013-06-23 10:30:00,64.3,64.3,29.75,South,178,5.4,-999.0,100,0.00,,,0.00,149.39,,2013-06-23 17:30:00,
2013-06-23 10:35:00,64.8,64.8,29.75,South,185,1.0,-999.0,100,0.00,,,0.00,190.48,,2013-06-23 17:35:00,
2013-06-23 10:40:00,65.2,65.2,29.75,SW,236,4.2,-999.0,100,0.00,,,0.00,163.98,,2013-06-23 17:40:00,
2013-06-23 10:45:00,66.2,66.2,29.75,SSW,207,0.0,-999.0,100,0.00,,,0.00,202.08,,2013-06-23 17:45:00,
2013-06-23 10:50:00,65.5,65.5,29.75,SW,220,3.0,-999.0,100,0.00,,,0.00,108.97,,2013-06-23 17:50:00,
2013-06-23 10:55:00,64.8,64.8,29.75,South,179,1.5,-999.0,100,0.00,,,0.00,98.78,,2013-06-23 17:55:00,
2013-06-23 11:05:00,64.8,64.8,29.75,West,263,1.6,-999.0,100,0.00,,,0.00,91.88,,2013-06-23 18:05:00,
2013-06-23 11:10:00,64.5,64.5,29.75,South,174,6.3,-999.0,100,0.00,,,0.00,91.09,,2013-06-23 18:10:00,
2013-06-23 11:15:00,64.9,64.9,29.75,WSW,246,0.0,-999.0,100,0.00,,,0.00,136.75,,2013-06-23 18:15:00,
2013-06-23 11:20:00,65.1,65.1,29.76,SW,225,1.3,-999.0,100,0.00,,,0.00,86.87,,2013-06-23 18:20:00,
2013-06-23 11:25:00,64.5,64.5,29.76,South,176,3.0,-999.0,100,0.00,,,0.00,76.43,,2013-06-23 18:25:00,
2013-06-23 11:30:00,64.9,64.9,29.75,SSE,168,0.0,-999.0,100,0.00,,,0.00,75.27,,2013-06-23 18:30:00,
2013-06-23 11:35:00,64.8,64.8,29.75,SSW,193,4.2,-999.0,100,0.00,,,0.00,84.43,,2013-06-23 18:35:00,
2013-06-23 11:40:00,64.8,64.8,29.75,South,172,5.6,-999.0,100,0.00,,,0.00,94.02,,2013-06-23 18:40:00,
2013-06-23 11:45:00,65.1,65.1,29.76,SE,143,1.0,-999.0,100,0.00,,,0.00,128.75,,2013-06-23 18:45:00,
2013-06-23 11:50:00,65.1,65.1,29.76,SW,221,2.0,-999.0,100,0.00,,,0.00,101.40,,2013-06-23 18:50:00,
2013-06-23 11:55:00,65.4,65.4,29.75,South,188,1.1,-999.0,100,0.00,,,0.00,111.48,,2013-06-23 18:55:00,
2013-06-23 12:00:00,65.6,65.6,29.75,SW,234,1.1,-999.0,100,0.00,,,0.00,80.46,,2013-06-23 19:00:00,
2013-06-23 12:05:00,65.3,65.3,29.75,SW,219,0.0,-999.0,100,0.00,,,0.00,94.57,,2013-06-23 19:05:00,
2013-06-23 12:10:00,65.0,65.0,29.75,South,183,1.5,-999.0,100,0.00,,,0.00,102.14,,2013-06-23 19:10:00,
2013-06-23 12:15:00,64.7,64.7,29.75,South,177,8.1,-999.0,100,0.00,,,0.00,149.57,,2013-06-23 19:15:00,
2013-06-23 12:20:00,64.7,64.7,29.75,SSE,168,4.4,-999.0,100,0.00,,,0.00,167.28,,2013-06-23 19:20:00,
2013-06-23 12:25:00,65.2,65.2,29.75,SSW,209,0.0,-999.0,100,0.00,,,0.00,172.16,,2013-06-23 19:25:00,
2013-06-23 12:30:00,65.1,65.1,29.75,SSW,210,3.9,-999.0,100,0.00,,,0.00,168.50,,2013-06-23 19:30:00,
2013-06-23 12:35:00,65.3,65.3,29.75,South,181,2.7,-999.0,100,0.00,,,0.00,211.78,,2013-06-23 19:35:00,
2013-06-23 12:40:00,65.1,65.1,29.75,SSW,195,5.4,-999.0,100,0.00,,,0.00,202.08,,2013-06-23 19:40:00,
2013-06-23 12:45:00,65.6,65.6,29.75,SSE,163,3.5,-999.0,100,0.00,,,0.00,236.81,,2013-06-23 19:45:00,
2013-06-23 12:50:00,65.7,65.7,29.75,SSW,210,4.0,-999.0,100,0.00,,,0.00,232.54,,2013-06-23 19:50:00,
2013-06-23 12:55:00,65.3,65.3,29.75,SW,214,2.2,-999.0,100,0.00,,,0.00,170.21,,2013-06-23 19:55:00,
2013-06-23 13:00:00,65.0,65.0,29.75,South,176,5.2,-999.0,100,0.00,,,0.00,125.03,,2013-06-23 20:00:00,
2013-06-23 13:05:00,65.2,65.2,29.76,West,273,6.1,-999.0,100,0.00,,,0.00,115.02,,2013-06-23 20:05:00,
2013-06-23 13:10:00,64.9,64.9,29.75,SW,236,7.4,-999.0,100,0.00,,,0.00,138.77,,2013-06-23 20:10:00,
2013-06-23 13:15:00,64.9,64.9,29.75,South,182,7.8,-999.0,100,0.00,,,0.00,153.36,,2013-06-23 20:15:00,
2013-06-23 13:20:00,65.2,65.2,29.75,SSW,211,3.4,-999.0,100,0.00,,,0.00,166.30,,2013-06-23 20:20:00,
2013-06-23 13:25:00,65.4,65.4,29.75,South,174,8.0,-999.0,100,0.00,,,0.00,169.72,,2013-06-23 20:25:00,
2013-06-23 13:30:00,65.2,65.2,29.75,SSE,158,5.8,-999.0,100,0.00,,,0.00,182.97,,2013-06-23 20:30:00,
2013-06-23 13:35:00,65.3,65.3,29.75,SSW,194,2.8,-999.0,100,0.00,,,0.00,248.17,,2013-06-23 20:35:00,
2013-06-23 13:40:00,65.9,65.9,29.74,West,270,3.4,-999.0,100,0.00,,,0.00,258.12,,2013-06-23 20:40:00,
2013-06-23 13:45:00,65.4,65.4,29.75,SSW,204,5.2,-999.0,100,0.00,,,0.00,222.77,,2013-06-23 20:45:00,
2013-06-23 13:50:00,65.1,65.1,29.74,SSW,207,8.8,-999.0,100,0.00,,,0.00,282.30,,2013-06-23 20:50:00,
2013-06-23 13:55:00,65.9,65.9,29.75,WSW,240,3.7,-999.0,100,0.00,,,0.00,279.06,,2013-06-23 20:55:00,
2013-06-23 14:00:00,65.7,65.7,29.74,South,180,5.6,-999.0,100,0.00,,,0.00,276.37,,2013-06-23 21:00:00,
2013-06-23 14:05:00,65.7,65.7,29.74,South,191,7.1,-999.0,100,0.00,,,0.00,274.66,,2013-06-23 21:05:00,
2013-06-23 14:10:00,66.1,65.9,29.74,South,181,5.6,-999.0,99,0.00,,,0.00,273.69,,2013-06-23 21:10:00,
2013-06-23 14:15:00,66.0,65.8,29.74,SSE,161,10.7,-999.0,99,0.00,,,0.00,228.33,,2013-06-23 21:15:00,
2013-06-23 14:20:00,66.3,66.0,29.74,South,183,4.4,-999.0,99,0.00,,,0.00,201.22,,2013-06-23 21:20:00,
2013-06-23 14:25:00,66.2,66.2,29.74,SE,142,3.5,-999.0,100,0.00,,,0.00,201.47,,2013-06-23 21:25:00,
2013-06-23 14:30:00,65.6,65.2,29.75,SSW,193,3.5,-999.0,99,0.00,,,0.00,188.71,,2013-06-23 21:30:00,
2013-06-23 14:35:00,65.5,65.1,29.74,SSW,203,7.6,-999.0,98,0.00,,,0.00,218.80,,2013-06-23 21:35:00,
2013-06-23 14:40:00,66.2,65.9,29.75,South,172,2.7,-999.0,99,0.00,,,0.00,221.25,,2013-06-23 21:40:00,
2013-06-23 14:45:00,65.9,65.3,29.74,South,188,5.9,-999.0,98,0.00,,,0.00,249.33,,2013-06-23 21:45:00,
2013-06-23 14:50:00,65.5,64.7,29.74,South,174,4.0,-999.0,97,0.00,,,0.00,202.20,,2013-06-23 21:50:00,
2013-06-23 14:55:00,65.7,64.7,29.74,SW,215,3.5,-999.0,97,0.00,,,0.00,199.33,,2013-06-23 21:55:00,
2013-06-23 15:00:00,65.9,65.2,29.74,SSW,194,1.5,-999.0,98,0.00,,,0.00,271.86,,2013-06-23 22:00:00,
2013-06-23 15:05:00,66.1,65.2,29.74,SSE,164,3.2,-999.0,97,0.00,,,0.00,261.78,,2013-06-23 22:05:00,
2013-06-23 15:10:00,66.0,64.9,29.74,WSW,252,1.8,-999.0,96,0.00,,,0.00,323.63,,2013-06-23 22:10:00,
2013-06-23 15:15:00,65.4,64.0,29.74,SSW,206,6.6,-999.0,95,0.00,,,0.00,397.80,,2013-06-23 22:15:00,
2013-06-23 15:20:00,65.9,64.4,29.73,South,176,2.5,-999.0,95,0.00,,,0.00,287.12,,2013-06-23 22:20:00,
2013-06-23 15:30:00,64.9,62.5,29.74,South,170,4.5,-999.0,92,0.00,,,0.00,175.27,,2013-06-23 22:30:00,
2013-06-23 15:35:00,65.4,63.5,29.73,South,179,3.7,-999.0,94,0.00,,,0.00,229.43,,2013-06-23 22:35:00,
2013-06-23 15:40:00,64.9,62.8,29.73,SW,218,6.1,-999.0,93,0.00,,,0.00,229.85,,2013-06-23 22:40:00,
2013-06-23 15:45:00,64.6,63.0,29.74,SW,228,4.0,-999.0,95,0.00,,,0.00,172.47,,2013-06-23 22:45:00,
2013-06-23 15:50:00,64.7,63.1,29.74,SW,233,2.7,-999.0,94,0.00,,,0.00,191.45,,2013-06-23 22:50:00,
2013-06-23 15:55:00,64.7,63.2,29.74,South,188,5.1,-999.0,95,0.00,,,0.00,198.47,,2013-06-23 22:55:00,
2013-06-23 16:00:00,64.7,63.3,29.73,SSW,205,5.1,-999.0,95,0.00,,,0.00,207.75,,2013-06-23 23:00:00,
2013-06-23 16:05:00,64.4,63.4,29.73,South,188,9.7,-999.0,96,0.00,,,0.00,278.88,,2013-06-23 23:05:00,
2013-06-23 16:10:00,64.0,62.9,29.73,South,186,6.4,-999.0,96,0.00,,,0.00,230.95,,2013-06-23 23:10:00,
2013-06-23 16:15:00,64.5,63.9,29.73,SSE,150,5.4,-999.0,98,0.00,,,0.00,348.29,,2013-06-23 23:15:00,
2013-06-23 16:20:00,65.1,64.3,29.73,South,183,3.9,-999.0,97,0.00,,,0.00,293.10,,2013-06-23 23:20:00,
2013-06-23 16:30:00,63.9,62.8,29.73,SSW,199,10.5,-999.0,96,0.00,,,0.00,288.28,,2013-06-23 23:30:00,
2013-06-23 16:35:00,64.7,63.8,29.72,South,190,4.2,-999.0,97,0.00,,,0.00,276.07,,2013-06-23 23:35:00,
2013-06-23 16:40:00,64.8,63.9,29.73,SSW,210,7.3,-999.0,97,0.00,,,0.00,261.78,,2013-06-23 23:40:00,
2013-06-23 16:45:00,64.3,63.4,29.74,West,262,4.0,-999.0,97,0.00,,,0.00,214.47,,2013-06-23 23:45:00,
2013-06-23 16:50:00,64.4,63.6,29.74,SSW,203,4.9,-999.0,97,0.00,,,0.00,178.57,,2013-06-23 23:50:00,
2013-06-23 16:55:00,64.3,63.2,29.73,SW,225,4.2,-999.0,96,0.00,,,0.00,167.28,,2013-06-23 23:55:00,
2013-06-23 17:00:00,64.1,63.2,29.73,WSW,241,1.6,-999.0,97,0.00,,,0.00,179.98,,2013-06-24 00:00:00,
2013-06-23 17:05:00,64.2,63.2,29.73,WSW,250,5.4,-999.0,97,0.00,,,0.00,146.52,,2013-06-24 00:05:00,
2013-06-23 17:10:00,64.4,63.7,29.73,SW,219,3.0,-999.0,98,0.00,,,0.00,159.04,,2013-06-24 00:10:00,
2013-06-23 17:15:00,64.0,63.3,29.73,South,181,6.1,-999.0,97,0.00,,,0.00,161.11,,2013-06-24 00:15:00,
2013-06-23 17:20:00,63.7,62.9,29.73,South,187,5.4,-999.0,97,0.00,,,0.00,142.92,,2013-06-24 00:20:00,
2013-06-23 17:25:00,63.6,62.8,29.73,SW,216,3.0,-999.0,97,0.00,,,0.00,145.24,,2013-06-24 00:25:00,
2013-06-23 17:30:00,63.5,62.7,29.73,WSW,241,7.8,-999.0,97,0.00,,,0.00,164.59,,2013-06-24 00:30:00,
2013-06-23 17:35:00,63.9,63.2,29.74,WNW,288,5.6,-999.0,98,0.00,,,0.00,173.14,,2013-06-24 00:35:00,
2013-06-23 17:40:00,63.5,62.9,29.73,SSW,195,7.4,-999.0,98,0.00,,,0.00,169.48,,2013-06-24 00:40:00,
2013-06-23 17:45:00,63.1,62.5,29.72,South,175,8.3,-999.0,98,0.00,,,0.00,143.41,,2013-06-24 00:45:00,
2013-06-23 17:50:00,63.7,63.0,29.73,South,183,3.2,-999.0,98,0.00,,,0.00,124.30,,2013-06-24 00:50:00,
2013-06-23 18:00:00,63.3,62.4,29.73,SSW,206,2.5,-999.0,97,0.00,,,0.00,129.85,,2013-06-24 01:00:00,
2013-06-23 18:05:00,63.7,63.0,29.72,SSE,161,0.0,-999.0,98,0.00,,,0.00,129.00,,2013-06-24 01:05:00,
2013-06-23 18:10:00,63.2,62.3,29.72,SSW,201,3.4,-999.0,97,0.00,,,0.00,132.66,,2013-06-24 01:10:00,
2013-06-23 18:15:00,63.4,62.4,29.72,South,183,4.4,-999.0,97,0.00,,,0.00,97.68,,2013-06-24 01:15:00,
2013-06-23 18:20:00,62.9,62.0,29.72,SW,215,7.4,-999.0,97,0.00,,,0.00,90.66,,2013-06-24 01:20:00,
2013-06-23 18:25:00,62.8,62.1,29.72,South,180,7.6,-999.0,97,0.00,,,0.00,83.52,,2013-06-24 01:25:00,
2013-06-23 18:30:00,62.8,62.1,29.72,SSW,213,6.8,-999.0,97,0.00,,,0.00,105.07,,2013-06-24 01:30:00,
2013-06-23 18:35:00,63.1,62.6,29.72,SW,228,4.5,-999.0,98,0.00,,,0.00,75.52,,2013-06-24 01:35:00,
2013-06-23 18:40:00,62.9,62.4,29.73,SSE,148,4.2,-999.0,98,0.00,,,0.00,87.67,,2013-06-24 01:40:00,
2013-06-23 18:45:00,63.1,62.6,29.72,South,182,5.6,-999.0,98,0.00,,,0.00,89.13,,2013-06-24 01:45:00,
2013-06-23 18:50:00,63.2,62.7,29.72,WSW,248,2.7,-999.0,98,0.00,,,0.00,91.88,,2013-06-24 01:50:00,
2013-06-23 18:55:00,62.8,62.4,29.72,South,191,6.9,-999.0,98,0.00,,,0.00,84.25,,2013-06-24 01:55:00,
2013-06-23 19:00:00,62.7,62.3,29.71,SSW,208,6.3,-999.0,99,0.00,,,0.00,57.39,,2013-06-24 02:00:00,
2013-06-23 19:05:00,62.7,62.5,29.71,WSW,241,4.7,-999.0,99,0.00,,,0.00,57.88,,2013-06-24 02:05:00,
2013-06-23 19:10:00,62.6,62.4,29.72,SSW,196,4.2,-999.0,99,0.00,,,0.00,48.90,,2013-06-24 02:10:00,
2013-06-23 19:15:00,62.0,61.8,29.72,WSW,242,8.0,-999.0,99,0.00,,,0.00,45.30,,2013-06-24 02:15:00,
2013-06-23 19:20:00,62.0,61.9,29.71,SSW,197,12.1,-999.0,100,0.00,,,0.00,39.01,,2013-06-24 02:20:00,
2013-06-23 19:25:00,62.3,62.3,29.72,SSW,199,2.2,-999.0,100,0.00,,,0.00,36.14,,2013-06-24 02:25:00,
2013-06-23 19:30:00,62.1,62.1,29.71,SW,214,2.8,-999.0,100,0.00,,,0.00,37.36,,2013-06-24 02:30:00,
2013-06-23 19:35:00,62.1,62.1,29.71,South,180,4.2,-999.0,100,0.00,,,0.00,33.27,,2013-06-24 02:35:00,
2013-06-23 19:40:00,62.0,62.0,29.71,SSW,202,2.8,-999.0,100,0.00,,,0.00,30.46,,2013-06-24 02:40:00,
2013-06-23 19:45:00,62.2,62.2,29.71,SSW,192,0.0,-999.0,100,0.00,,,0.00,25.34,,2013-06-24 02:45:00,
2013-06-23 19:50:00,62.0,62.0,29.72,SE,146,6.3,-999.0,100,0.00,,,0.00,25.89,,2013-06-24 02:50:00,
2013-06-23 19:55:00,62.1,62.1,29.71,SSW,194,0.0,-999.0,100,0.00,,,0.00,20.09,,2013-06-24 02:55:00,
2013-06-23 20:00:00,62.0,62.0,29.71,SSW,207,5.1,-999.0,100,0.00,,,0.00,13.68,,2013-06-24 03:00:00,
2013-06-23 20:05:00,62.1,62.1,29.71,South,182,1.0,-999.0,100,0.00,,,0.00,10.50,,2013-06-24 03:05:00,
2013-06-23 20:10:00,61.8,61.8,29.71,SSW,205,4.7,-999.0,100,0.00,,,0.00,6.84,,2013-06-24 03:10:00,
2013-06-23 20:15:00,61.7,61.7,29.72,ESE,123,1.3,-999.0,100,0.00,,,0.00,5.74,,2013-06-24 03:15:00,
2013-06-23 20:20:00,61.7,61.7,29.71,South,191,2.5,-999.0,100,0.00,,,0.00,2.81,,2013-06-24 03:20:00,
2013-06-23 20:25:00,61.5,61.5,29.71,SW,223,3.2,-999.0,100,0.00,,,0.00,2.44,,2013-06-24 03:25:00,
2013-06-23 20:30:00,61.5,61.5,29.71,South,187,1.5,-999.0,100,0.00,,,0.00,1.04,,2013-06-24 03:30:00,
2013-06-23 20:35:00,61.5,61.5,29.71,SSW,196,4.5,-999.0,100,0.00,,,0.00,0.06,,2013-06-24 03:35:00,
2013-06-23 20:40:00,61.7,61.7,29.71,South,184,1.5,-999.0,100,0.00,,,0.00,0.24,,2013-06-24 03:40:00,
2013-06-23 20:45:00,61.9,61.9,29.71,WSW,243,2.8,-999.0,100,0.00,,,0.00,1.47,,2013-06-24 03:45:00,
2013-06-23 20:55:00,61.6,61.6,29.71,South,172,1.0,-999.0,100,0.00,,,0.00,0.00,,2013-06-24 03:55:00,
2013-06-23 21:00:00,61.7,61.7,29.72,South,183,1.8,-999.0,100,0.00,,,0.00,0.00,,2013-06-24 04:00:00,
2013-06-23 21:05:00,61.7,61.7,29.72,SSW,209,0.0,-999.0,100,0.00,,,0.00,0.43,,2013-06-24 04:05:00,
2013-06-23 21:10:00,61.5,61.5,29.71,South,178,0.0,-999.0,100,0.00,,,0.00,0.18,,2013-06-24 04:10:00,
2013-06-23 21:15:00,61.4,61.4,29.71,SSW,194,1.3,-999.0,100,0.00,,,0.00,0.73,,2013-06-24 04:15:00,
2013-06-23 21:20:00,61.4,61.4,29.72,SW,224,0.0,-999.0,100,0.00,,,0.00,0.00,,2013-06-24 04:20:00,
2013-06-23 21:25:00,61.5,61.5,29.71,SW,216,1.1,-999.0,100,0.00,,,0.00,0.00,,2013-06-24 04:25:00,
2013-06-23 21:30:00,61.3,61.3,29.72,SSW,201,7.8,-999.0,100,0.00,,,0.00,0.00,,2013-06-24 04:30:00,
2013-06-23 21:35:00,61.1,61.1,29.71,SSW,197,3.0,-999.0,100,0.00,,,0.00,0.43,,2013-06-24 04:35:00,
2013-06-23 21:40:00,61.2,61.2,29.71,South,169,4.5,-999.0,100,0.00,,,0.00,0.73,,2013-06-24 04:40:00,
2013-06-23 21:45:00,60.9,60.9,29.70,SSE,165,0.0,-999.0,100,0.00,,,0.00,0.98,,2013-06-24 04:45:00,
2013-06-23 21:50:00,60.7,60.7,29.71,SW,218,7.3,-999.0,100,0.00,,,0.00,0.49,,2013-06-24 04:50:00,
2013-06-23 21:55:00,60.8,60.8,29.73,SSW,212,2.7,-999.0,100,0.00,,,0.00,0.85,,2013-06-24 04:55:00,
2013-06-23 22:00:00,60.8,60.8,29.72,SSW,205,4.5,-999.0,100,0.00,,,0.00,0.00,,2013-06-24 05:00:00,
2013-06-23 22:05:00,60.8,60.8,29.72,SSW,200,2.0,-999.0,100,0.00,,,0.00,0.00,,2013-06-24 05:05:00,
2013-06-23 22:10:00,60.7,60.7,29.72,SW,218,1.6,-999.0,100,0.00,,,0.00,0.00,,2013-06-24 05:10:00,
2013-06-23 22:15:00,60.5,60.5,29.72,South,176,7.4,-999.0,100,0.00,,,0.00,0.00,,2013-06-24 05:15:00,
2013-06-23 22:20:00,60.5,60.5,29.72,SW,223,6.1,-999.0,100,0.00,,,0.00,0.18,,2013-06-24 05:20:00,
2013-06-23 22:25:00,60.5,60.5,29.71,SSW,213,4.4,-999.0,100,0.00,,,0.00,0.06,,2013-06-24 05:25:00,
2013-06-23 22:30:00,60.5,60.5,29.71,SSW,192,0.0,-999.0,100,0.00,,,0.00,0.00,,2013-06-24 05:30:00,
2013-06-23 22:35:00,60.6,60.6,29.72,West,267,3.4,-999.0,100,0.00,,,0.00,0.00,,2013-06-24 05:35:00,
2013-06-23 22:40:00,60.5,60.5,29.71,SW,228,0.0,-999.0,100,0.00,,,0.00,0.98,,2013-06-24 05:40:00,
2013-06-23 22:45:00,60.1,60.1,29.71,SSW,205,0.0,-999.0,100,0.00,,,0.00,0.00,,2013-06-24 05:45:00,
2013-06-23 22:50:00,59.9,59.9,29.71,SW,221,4.7,-999.0,100,0.00,,,0.00,0.06,,2013-06-24 05:50:00,
2013-06-23 23:00:00,59.8,59.8,29.71,SSW,199,3.9,-999.0,100,0.00,,,0.00,0.55,,2013-06-24 06:00:00,
2013-06-23 23:05:00,59.6,59.6,29.71,SSE,154,1.1,-999.0,100,0.00,,,0.00,0.18,,2013-06-24 06:05:00,
2013-06-23 23:10:00,59.6,59.6,29.72,WSW,238,3.0,-999.0,100,0.00,,,0.00,0.18,,2013-06-24 06:10:00,
2013-06-23 23:20:00,58.9,58.9,29.71,SSW,209,4.4,-999.0,100,0.00,,,0.00,0.37,,2013-06-24 06:20:00,
2013-06-23 23:25:00,59.0,59.0,29.70,SSW,204,1.0,-999.0,100,0.00,,,0.00,0.00,,2013-06-24 06:25:00,
2013-06-23 23:30:00,58.9,58.9,29.71,South,189,4.4,-999.0,100,0.00,,,0.00,0.00,,2013-06-24 06:30:00,
2013-06-23 23:35:00,59.0,59.0,29.71,SW,218,1.8,-999.0,100,0.00,,,0.00,0.00,,2013-06-24 06:35:00,
2013-06-23 23:40:00,59.0,59.0,29.70,SW,216,1.3,-999.0,100,0.00,,,0.00,0.98,,2013-06-24 06:40:00,
2013-06-23 23:45:00,59.4,59.4,29.72,SSE,168,2.0,-999.0,100,0.00,,,0.00,0.55,,2013-06-24 06:45:00,
2013-06-23 23:50:00,59.5,59.5,29.71,WSW,254,0.0,-999.0,100,0.00,,,0.00,0.00,,2013-06-24 06:50:00,
2013-06-23 23:55:00,59.0,59.0,29.71,WSW,237,2.0,-999.0,100,0.00,,,0.00,0.79,,2013-06-24 06:55:00,